Time,TemperatureF,DewpointF,PressureIn,WindDirection,WindDirectionDegrees,WindSpeedMPH,WindSpeedGustMPH,Humidity,HourlyPrecipIn,Conditions,Clouds,dailyrainin,SoftwareType,DateUTC
2013-01-19 00:05:00,38.5,24.2,29.87,SSW,210,16.0,24.0,56,0.00,,CLR,0.00,VWS V14.01,2013-01-19 05:05:00,
2013-01-19 00:11:00,38.6,24.3,29.87,SSW,212,16.0,25.0,56,0.00,,CLR,0.00,VWS V14.01,2013-01-19 05:11:00,
2013-01-19 00:15:00,38.8,24.5,29.87,SSW,212,22.0,22.0,56,0.00,,CLR,0.00,VWS V14.01,2013-01-19 05:15:00,
2013-01-19 00:20:00,38.8,24.5,29.87,SW,230,15.0,26.0,56,0.00,,CLR,0.00,VWS V14.01,2013-01-19 05:20:00,
2013-01-19 00:25:00,38.8,24.5,29.87,SW,227,10.0,28.0,56,0.00,,CLR,0.00,VWS V14.01,2013-01-19 05:25:00,
2013-01-19 00:35:00,39.1,24.7,29.87,WSW,240,12.0,29.0,56,0.00,,CLR,0.00,VWS V14.01,2013-01-19 05:35:00,
2013-01-19 00:40:00,38.9,24.6,29.87,SW,226,19.0,24.0,56,0.00,,CLR,0.00,VWS V14.01,2013-01-19 05:40:00,
2013-01-19 00:45:00,38.8,24.5,29.86,SW,224,12.0,25.0,56,0.00,,CLR,0.00,VWS V14.01,2013-01-19 05:45:00,
2013-01-19 00:55:00,39.5,24.7,29.86,SW,219,16.0,22.0,55,0.00,,CLR,0.00,VWS V14.01,2013-01-19 05:55:00,
2013-01-19 01:00:00,39.5,24.7,29.86,SSW,209,11.0,25.0,55,0.00,,CLR,0.00,VWS V14.01,2013-01-19 06:00:00,
2013-01-19 01:10:00,39.3,24.5,29.86,SW,227,13.0,24.0,55,0.00,,CLR,0.00,VWS V14.01,2013-01-19 06:10:00,
2013-01-19 01:15:00,39.3,24.9,29.86,SSW,200,10.0,21.0,56,0.00,,CLR,0.00,VWS V14.01,2013-01-19 06:15:00,
2013-01-19 01:20:00,39.2,24.8,29.86,SW,216,16.0,22.0,56,0.00,,CLR,0.00,VWS V14.01,2013-01-19 06:20:00,
2013-01-19 01:25:00,38.9,24.6,29.86,SSW,209,16.0,24.0,56,0.00,,CLR,0.00,VWS V14.01,2013-01-19 06:25:00,
2013-01-19 01:30:00,38.8,24.9,29.85,SSW,209,20.0,21.0,57,0.00,,CLR,0.00,VWS V14.01,2013-01-19 06:30:00,
2013-01-19 01:35:00,38.6,25.1,29.85,SW,222,19.0,25.0,58,0.00,,CLR,0.00,VWS V14.01,2013-01-19 06:35:00,
2013-01-19 01:40:00,38.8,24.9,29.85,South,191,20.0,22.0,57,0.00,,CLR,0.00,VWS V14.01,2013-01-19 06:40:00,
2013-01-19 01:50:00,38.8,24.9,29.85,SSW,206,16.0,18.0,57,0.00,,CLR,0.00,VWS V14.01,2013-01-19 06:50:00,
2013-01-19 01:55:00,38.9,25.0,29.85,SSW,198,17.0,24.0,57,0.00,,CLR,0.00,VWS V14.01,2013-01-19 06:55:00,
2013-01-19 02:00:00,38.8,24.9,29.85,SW,215,19.0,21.0,57,0.00,,CLR,0.00,VWS V14.01,2013-01-19 07:00:00,
2013-01-19 02:05:00,38.8,25.3,29.85,SW,216,10.0,22.0,58,0.00,,CLR,0.00,VWS V14.01,2013-01-19 07:05:00,
2013-01-19 02:15:00,38.5,25.0,29.85,SW,215,17.0,21.0,58,0.00,,CLR,0.00,VWS V14.01,2013-01-19 07:15:00,
2013-01-19 02:20:00,38.6,25.1,29.85,SSW,192,20.0,27.0,58,0.00,,CLR,0.00,VWS V14.01,2013-01-19 07:20:00,
2013-01-19 02:25:00,38.6,25.1,29.85,SW,216,17.0,22.0,58,0.00,,CLR,0.00,VWS V14.01,2013-01-19 07:25:00,
2013-01-19 02:35:00,39.9,25.5,29.85,SSE,157,6.0,26.0,56,0.00,,CLR,0.00,VWS V14.01,2013-01-19 07:35:00,
2013-01-19 02:40:00,40.2,25.3,29.85,SW,220,21.0,27.0,55,0.00,,CLR,0.00,VWS V14.01,2013-01-19 07:40:00,
2013-01-19 02:45:00,39.6,25.2,29.85,SSW,212,24.0,30.0,56,0.00,,CLR,0.00,VWS V14.01,2013-01-19 07:45:00,
2013-01-19 02:50:00,39.5,25.1,29.85,SW,226,25.0,25.0,56,0.00,,CLR,0.00,VWS V14.01,2013-01-19 07:50:00,
2013-01-19 03:00:00,39.1,25.2,29.85,SSW,192,10.0,24.0,57,0.00,,CLR,0.00,VWS V14.01,2013-01-19 08:00:00,
2013-01-19 03:10:00,39.1,25.6,29.85,SW,220,16.0,26.0,58,0.00,,CLR,0.00,VWS V14.01,2013-01-19 08:10:00,
2013-01-19 03:15:00,38.9,25.4,29.85,South,184,16.0,24.0,58,0.00,,CLR,0.00,VWS V14.01,2013-01-19 08:15:00,
2013-01-19 03:20:00,38.8,25.3,29.85,SW,226,17.0,28.0,58,0.00,,CLR,0.00,VWS V14.01,2013-01-19 08:20:00,
2013-01-19 03:30:00,38.5,25.4,29.85,SW,216,18.0,21.0,59,0.00,,CLR,0.00,VWS V14.01,2013-01-19 08:30:00,
2013-01-19 03:35:00,39.2,25.7,29.85,SW,222,24.0,27.0,58,0.00,,CLR,0.00,VWS V14.01,2013-01-19 08:35:00,
2013-01-19 03:40:00,39.1,25.6,29.85,SW,215,17.0,29.0,58,0.00,,CLR,0.00,VWS V14.01,2013-01-19 08:40:00,
2013-01-19 03:50:00,38.8,25.7,29.85,SW,226,12.0,25.0,59,0.00,,CLR,0.00,VWS V14.01,2013-01-19 08:50:00,
2013-01-19 03:55:00,38.6,25.5,29.85,SW,216,16.0,21.0,59,0.00,,CLR,0.00,VWS V14.01,2013-01-19 08:55:00,
2013-01-19 04:00:00,38.2,25.5,29.85,SW,226,22.0,22.0,60,0.00,,CLR,0.00,VWS V14.01,2013-01-19 09:00:00,
2013-01-19 04:05:00,38.2,26.0,29.85,WSW,243,18.0,29.0,61,0.00,,CLR,0.00,VWS V14.01,2013-01-19 09:05:00,
2013-01-19 04:15:00,38.2,26.0,29.85,SW,219,18.0,20.0,61,0.00,,CLR,0.00,VWS V14.01,2013-01-19 09:15:00,
2013-01-19 04:20:00,38.2,26.0,29.85,SSW,200,17.0,21.0,61,0.00,,CLR,0.00,VWS V14.01,2013-01-19 09:20:00,
2013-01-19 04:25:00,38.3,26.0,29.85,SSW,209,18.0,21.0,61,0.00,,CLR,0.00,VWS V14.01,2013-01-19 09:25:00,
2013-01-19 04:30:00,38.6,25.9,29.84,SSW,206,16.0,20.0,60,0.00,,CLR,0.00,VWS V14.01,2013-01-19 09:30:00,
2013-01-19 04:40:00,38.5,25.8,29.84,SW,224,13.0,20.0,60,0.00,,CLR,0.00,VWS V14.01,2013-01-19 09:40:00,
2013-01-19 04:45:00,38.3,26.0,29.83,WSW,254,14.0,25.0,61,0.00,,CLR,0.00,VWS V14.01,2013-01-19 09:45:00,
2013-01-19 04:50:00,38.3,26.0,29.83,WSW,240,14.0,25.0,61,0.00,,CLR,0.00,VWS V14.01,2013-01-19 09:50:00,
2013-01-19 04:55:00,38.6,26.3,29.83,SW,226,11.0,24.0,61,0.00,,CLR,0.00,VWS V14.01,2013-01-19 09:55:00,
2013-01-19 05:05:00,38.5,26.2,29.83,SSW,202,19.0,24.0,61,0.00,,CLR,0.00,VWS V14.01,2013-01-19 10:05:00,
2013-01-19 05:10:00,38.2,26.0,29.83,SW,217,16.0,20.0,61,0.00,,CLR,0.00,VWS V14.01,2013-01-19 10:10:00,
2013-01-19 05:15:00,38.2,26.3,29.83,SSW,202,17.0,22.0,62,0.00,,CLR,0.00,VWS V14.01,2013-01-19 10:15:00,
2013-01-19 05:20:00,38.2,26.3,29.83,WSW,258,14.0,26.0,62,0.00,,CLR,0.00,VWS V14.01,2013-01-19 10:20:00,
2013-01-19 05:25:00,38.3,26.4,29.83,SW,220,18.0,22.0,62,0.00,,CLR,0.00,VWS V14.01,2013-01-19 10:25:00,
2013-01-19 05:30:00,38.5,26.6,29.83,SW,220,22.0,22.0,62,0.00,,CLR,0.00,VWS V14.01,2013-01-19 10:30:00,
2013-01-19 05:40:00,38.9,26.2,29.83,SW,215,19.0,25.0,60,0.00,,CLR,0.00,VWS V14.01,2013-01-19 10:40:00,
2013-01-19 05:45:00,38.8,26.5,29.83,SSW,206,12.0,20.0,61,0.00,,CLR,0.00,VWS V14.01,2013-01-19 10:45:00,
2013-01-19 05:50:00,38.5,26.2,29.83,SW,215,24.0,24.0,61,0.00,,CLR,0.00,VWS V14.01,2013-01-19 10:50:00,
2013-01-19 05:55:00,38.3,26.4,29.83,WSW,243,12.0,24.0,62,0.00,,CLR,0.00,VWS V14.01,2013-01-19 10:55:00,
2013-01-19 06:00:00,38.0,26.1,29.83,SW,220,16.0,22.0,62,0.00,,CLR,0.00,VWS V14.01,2013-01-19 11:00:00,
2013-01-19 06:10:00,38.0,26.1,29.83,South,182,14.0,21.0,62,0.00,,CLR,0.00,VWS V14.01,2013-01-19 11:10:00,
2013-01-19 07:50:00,37.9,26.8,29.82,SW,227,13.0,18.0,64,0.01,,CLR,0.01,VWS V14.01,2013-01-19 12:50:00,
2013-01-19 07:55:00,37.6,26.9,29.82,SSW,192,8.0,18.0,65,0.01,,CLR,0.01,VWS V14.01,2013-01-19 12:55:00,
2013-01-19 08:00:00,37.5,26.8,29.82,SSW,199,10.0,17.0,65,0.01,,CLR,0.01,VWS V14.01,2013-01-19 13:00:00,
2013-01-19 08:05:00,37.3,26.6,29.82,SW,222,12.0,18.0,65,0.01,,CLR,0.01,VWS V14.01,2013-01-19 13:05:00,
2013-01-19 08:15:00,37.0,26.7,29.82,SSW,210,10.0,16.0,66,0.01,,CLR,0.01,VWS V14.01,2013-01-19 13:15:00,
2013-01-19 08:20:00,36.8,26.9,29.82,South,185,10.0,17.0,67,0.01,,CLR,0.01,VWS V14.01,2013-01-19 13:20:00,
2013-01-19 08:25:00,36.8,26.9,29.82,SSW,208,22.0,22.0,67,0.00,,CLR,0.01,VWS V14.01,2013-01-19 13:25:00,
2013-01-19 08:30:00,37.0,27.1,29.82,SW,233,16.0,22.0,67,0.00,,CLR,0.01,VWS V14.01,2013-01-19 13:30:00,
2013-01-19 08:35:00,37.0,27.1,29.82,SSW,199,13.0,18.0,67,0.00,,CLR,0.01,VWS V14.01,2013-01-19 13:35:00,
2013-01-19 08:40:00,37.0,27.1,29.82,SW,220,12.0,16.0,67,0.00,,CLR,0.01,VWS V14.01,2013-01-19 13:40:00,
2013-01-19 08:50:00,37.3,27.0,29.81,SSW,210,10.0,18.0,66,0.00,,CLR,0.01,VWS V14.01,2013-01-19 13:50:00,
2013-01-19 08:55:00,37.5,27.2,29.81,South,179,11.0,17.0,66,0.00,,CLR,0.01,VWS V14.01,2013-01-19 13:55:00,
2013-01-19 09:00:00,37.6,27.3,29.81,SSW,206,17.0,18.0,66,0.00,,CLR,0.01,VWS V14.01,2013-01-19 14:00:00,
2013-01-19 09:10:00,38.2,27.5,29.81,SW,219,13.0,22.0,65,0.00,,CLR,0.01,VWS V14.01,2013-01-19 14:10:00,
2013-01-19 09:15:00,38.5,27.4,29.82,SSW,209,19.0,21.0,64,0.00,,CLR,0.01,VWS V14.01,2013-01-19 14:15:00,
2013-01-19 09:20:00,38.6,27.5,29.82,SSE,168,12.0,19.0,64,0.00,,CLR,0.01,VWS V14.01,2013-01-19 14:20:00,
2013-01-19 09:25:00,38.9,27.4,29.82,SW,216,16.0,19.0,63,0.00,,CLR,0.01,VWS V14.01,2013-01-19 14:25:00,
2013-01-19 09:30:00,39.1,27.2,29.82,SSW,205,17.0,22.0,62,0.00,,CLR,0.01,VWS V14.01,2013-01-19 14:30:00,
2013-01-19 09:35:00,39.2,27.3,29.82,SW,230,18.0,22.0,62,0.00,,CLR,0.01,VWS V14.01,2013-01-19 14:35:00,
2013-01-19 09:40:00,39.2,27.3,29.82,SSW,199,13.0,24.0,62,0.00,,CLR,0.01,VWS V14.01,2013-01-19 14:40:00,
2013-01-19 09:45:00,39.3,27.4,29.81,SW,217,19.0,20.0,62,0.00,,CLR,0.01,VWS V14.01,2013-01-19 14:45:00,
2013-01-19 09:50:00,39.6,27.3,29.81,SW,217,12.0,19.0,61,0.00,,CLR,0.01,VWS V14.01,2013-01-19 14:50:00,
2013-01-19 09:55:00,39.9,27.6,29.81,SW,219,13.0,18.0,61,0.00,,CLR,0.01,VWS V14.01,2013-01-19 14:55:00,
2013-01-19 10:05:00,40.5,27.7,29.81,WSW,237,18.0,21.0,60,0.00,,CLR,0.01,VWS V14.01,2013-01-19 15:05:00,
2013-01-19 10:10:00,40.6,27.4,29.81,SW,236,10.0,20.0,59,0.00,,CLR,0.01,VWS V14.01,2013-01-19 15:10:00,
2013-01-19 10:15:00,40.8,27.6,29.81,South,188,18.0,21.0,59,0.00,,CLR,0.01,VWS V14.01,2013-01-19 15:15:00,
2013-01-19 10:20:00,40.9,27.7,29.81,South,191,11.0,21.0,59,0.00,,CLR,0.01,VWS V14.01,2013-01-19 15:20:00,
2013-01-19 10:25:00,41.1,27.5,29.81,SSW,209,16.0,25.0,58,0.00,,CLR,0.01,VWS V14.01,2013-01-19 15:25:00,
2013-01-19 10:30:00,41.1,27.9,29.80,SSW,205,8.0,21.0,59,0.00,,CLR,0.01,VWS V14.01,2013-01-19 15:30:00,
2013-01-19 10:35:00,41.5,27.8,29.80,SSW,210,11.0,19.0,58,0.00,,CLR,0.01,VWS V14.01,2013-01-19 15:35:00,
2013-01-19 10:45:00,41.8,28.1,29.80,SW,220,11.0,20.0,58,0.00,,CLR,0.01,VWS V14.01,2013-01-19 15:45:00,
2013-01-19 10:50:00,41.8,27.7,29.80,SSW,199,8.0,24.0,57,0.00,,CLR,0.01,VWS V14.01,2013-01-19 15:50:00,
2013-01-19 10:55:00,42.3,28.2,29.80,South,188,21.0,24.0,57,0.00,,CLR,0.01,VWS V14.01,2013-01-19 15:55:00,
2013-01-19 11:00:00,42.2,28.1,29.80,SW,217,13.0,27.0,57,0.00,,CLR,0.01,VWS V14.01,2013-01-19 16:00:00,
2013-01-19 11:10:00,42.8,28.2,29.80,SSW,198,7.0,22.0,56,0.00,,CLR,0.01,VWS V14.01,2013-01-19 16:10:00,
2013-01-19 11:15:00,42.9,28.3,29.79,SW,227,7.0,22.0,56,0.00,,CLR,0.01,VWS V14.01,2013-01-19 16:15:00,
2013-01-19 11:20:00,43.2,28.1,29.79,SW,222,21.0,22.0,55,0.00,,CLR,0.01,VWS V14.01,2013-01-19 16:20:00,
2013-01-19 11:25:00,43.5,28.9,29.79,South,188,20.0,24.0,56,0.00,,CLR,0.01,VWS V14.01,2013-01-19 16:25:00,
2013-01-19 11:35:00,43.6,28.5,29.78,SSE,147,11.0,22.0,55,0.00,,CLR,0.01,VWS V14.01,2013-01-19 16:35:00,
2013-01-19 11:40:00,43.8,28.7,29.78,SSW,210,20.0,24.0,55,0.00,,CLR,0.01,VWS V14.01,2013-01-19 16:40:00,
2013-01-19 11:45:00,44.1,29.0,29.77,SSW,202,20.0,22.0,55,0.00,,CLR,0.01,VWS V14.01,2013-01-19 16:45:00,
2013-01-19 11:50:00,44.2,29.1,29.77,SW,215,13.0,24.0,55,0.00,,CLR,0.01,VWS V14.01,2013-01-19 16:50:00,
2013-01-19 11:55:00,44.3,29.2,29.77,SSW,212,25.0,25.0,55,0.00,,CLR,0.01,VWS V14.01,2013-01-19 16:55:00,
2013-01-19 12:00:00,44.6,29.0,29.76,SW,223,12.0,25.0,54,0.00,,CLR,0.01,VWS V14.01,2013-01-19 17:00:00,
2013-01-19 12:05:00,44.8,29.2,29.76,SW,233,20.0,25.0,54,0.00,,CLR,0.01,VWS V14.01,2013-01-19 17:05:00,
2013-01-19 12:10:00,45.1,29.0,29.76,WSW,243,26.0,27.0,53,0.00,,CLR,0.01,VWS V14.01,2013-01-19 17:10:00,
2013-01-19 12:20:00,45.8,29.2,29.74,WSW,251,19.0,30.0,52,0.00,,CLR,0.01,VWS V14.01,2013-01-19 17:20:00,
2013-01-19 12:30:00,46.1,29.5,29.73,SW,220,19.0,25.0,52,0.00,,CLR,0.01,VWS V14.01,2013-01-19 17:30:00,
2013-01-19 12:35:00,46.0,29.4,29.73,SSW,205,24.0,31.0,52,0.00,,CLR,0.01,VWS V14.01,2013-01-19 17:35:00,
2013-01-19 12:40:00,46.1,29.5,29.73,SW,226,34.0,36.0,52,0.00,,CLR,0.01,VWS V14.01,2013-01-19 17:40:00,
2013-01-19 13:00:00,46.7,30.0,29.70,SW,223,19.0,33.0,52,0.00,,CLR,0.01,VWS V14.01,2013-01-19 18:00:00,
2013-01-19 13:10:00,47.1,29.9,29.70,SW,224,26.0,26.0,51,0.00,,CLR,0.01,VWS V14.01,2013-01-19 18:10:00,
2013-01-19 13:15:00,47.0,30.3,29.69,SW,220,17.0,29.0,52,0.00,,CLR,0.01,VWS V14.01,2013-01-19 18:15:00,
2013-01-19 13:25:00,46.8,30.1,29.69,SW,229,17.0,35.0,52,0.00,,CLR,0.01,VWS V14.01,2013-01-19 18:25:00,
2013-01-19 13:30:00,47.0,30.3,29.68,SW,226,19.0,36.0,52,0.00,,CLR,0.01,VWS V14.01,2013-01-19 18:30:00,
2013-01-19 13:40:00,47.9,31.1,29.68,SSE,168,28.0,28.0,52,0.00,,CLR,0.01,VWS V14.01,2013-01-19 18:40:00,
2013-01-19 13:45:00,47.9,31.1,29.68,SW,216,12.0,28.0,52,0.00,,CLR,0.01,VWS V14.01,2013-01-19 18:45:00,
2013-01-19 13:50:00,47.7,30.5,29.68,SW,223,17.0,32.0,51,0.00,,CLR,0.01,VWS V14.01,2013-01-19 18:50:00,
2013-01-19 14:01:00,48.2,31.4,29.68,SSW,213,20.0,27.0,52,0.00,,CLR,0.01,VWS V14.01,2013-01-19 19:01:00,
2013-01-19 14:10:00,48.0,31.2,29.68,WSW,239,17.0,32.0,52,0.00,,CLR,0.01,VWS V14.01,2013-01-19 19:10:00,
2013-01-19 14:15:00,48.2,30.9,29.67,SW,217,17.0,31.0,51,0.00,,CLR,0.01,VWS V14.01,2013-01-19 19:15:00,
2013-01-19 14:20:00,48.6,31.8,29.67,SSW,206,17.0,24.0,52,0.00,,CLR,0.01,VWS V14.01,2013-01-19 19:20:00,
2013-01-19 14:25:00,48.6,31.8,29.67,WSW,248,13.0,30.0,52,0.00,,CLR,0.01,VWS V14.01,2013-01-19 19:25:00,
2013-01-19 14:30:00,48.6,31.8,29.66,SW,219,22.0,30.0,52,0.00,,CLR,0.01,VWS V14.01,2013-01-19 19:30:00,
2013-01-19 14:35:00,48.6,32.3,29.66,SW,233,20.0,26.0,53,0.00,,CLR,0.01,VWS V14.01,2013-01-19 19:35:00,
2013-01-19 14:40:00,48.6,31.8,29.66,SSW,208,20.0,31.0,52,0.00,,CLR,0.01,VWS V14.01,2013-01-19 19:40:00,
2013-01-19 14:45:00,48.6,31.8,29.66,SW,220,24.0,30.0,52,0.00,,CLR,0.01,VWS V14.01,2013-01-19 19:45:00,
2013-01-19 14:50:00,48.9,32.1,29.66,SW,226,11.0,25.0,52,0.00,,CLR,0.01,VWS V14.01,2013-01-19 19:50:00,
2013-01-19 15:00:00,48.6,31.8,29.66,WSW,237,20.0,26.0,52,0.00,,CLR,0.01,VWS V14.01,2013-01-19 20:00:00,
2013-01-19 15:10:00,48.6,31.8,29.66,SW,216,14.0,32.0,52,0.00,,CLR,0.01,VWS V14.01,2013-01-19 20:10:00,
2013-01-19 15:15:00,48.8,32.4,29.65,West,261,16.0,26.0,53,0.00,,CLR,0.01,VWS V14.01,2013-01-19 20:15:00,
2013-01-19 15:25:00,48.2,31.9,29.65,SW,215,22.0,30.0,53,0.00,,CLR,0.01,VWS V14.01,2013-01-19 20:25:00,
2013-01-19 15:30:00,47.9,31.6,29.65,SW,233,22.0,30.0,53,0.00,,CLR,0.01,VWS V14.01,2013-01-19 20:30:00,
2013-01-19 15:35:00,47.7,31.9,29.65,SW,224,18.0,27.0,54,0.00,,CLR,0.01,VWS V14.01,2013-01-19 20:35:00,
2013-01-19 15:40:00,47.6,31.8,29.65,SW,216,11.0,24.0,54,0.00,,CLR,0.01,VWS V14.01,2013-01-19 20:40:00,
2013-01-19 15:50:00,47.3,32.0,29.64,SSW,210,20.0,25.0,55,0.00,,CLR,0.01,VWS V14.01,2013-01-19 20:50:00,
2013-01-19 15:55:00,47.1,31.8,29.64,SW,223,18.0,24.0,55,0.00,,CLR,0.01,VWS V14.01,2013-01-19 20:55:00,
2013-01-19 16:05:00,46.8,32.0,29.64,SSW,213,20.0,26.0,56,0.00,,CLR,0.01,VWS V14.01,2013-01-19 21:05:00,
2013-01-19 16:10:00,46.8,32.4,29.64,SW,223,16.0,22.0,57,0.00,,CLR,0.01,VWS V14.01,2013-01-19 21:10:00,
2013-01-19 16:20:00,46.5,32.5,29.65,SW,227,11.0,19.0,58,0.00,,CLR,0.01,VWS V14.01,2013-01-19 21:20:00,
2013-01-19 16:30:00,46.4,32.4,29.65,South,191,11.0,21.0,58,0.00,,CLR,0.01,VWS V14.01,2013-01-19 21:30:00,
2013-01-19 16:41:00,46.2,32.2,29.65,SW,222,11.0,22.0,58,0.00,,BKN120,0.01,VWS V14.01,2013-01-19 21:41:00,
2013-01-19 16:50:00,46.0,32.5,29.65,SSW,206,11.0,17.0,59,0.00,,BKN120,0.01,VWS V14.01,2013-01-19 21:50:00,
2013-01-19 17:06:00,46.5,32.5,29.64,SSW,196,13.0,19.0,58,0.00,,BKN120,0.01,VWS V14.01,2013-01-19 22:06:00,
2013-01-19 17:11:00,46.7,32.7,29.64,SSW,192,12.0,22.0,58,0.00,,BKN120,0.01,VWS V14.01,2013-01-19 22:11:00,
2013-01-19 17:16:00,46.7,32.7,29.64,SSW,212,16.0,20.0,58,0.00,,BKN120,0.01,VWS V14.01,2013-01-19 22:16:00,
2013-01-19 17:25:00,46.2,32.7,29.64,SW,220,9.0,19.0,59,0.00,,BKN120,0.01,VWS V14.01,2013-01-19 22:25:00,
2013-01-19 17:35:00,45.8,32.3,29.63,SW,219,12.0,18.0,59,0.00,,BKN120,0.01,VWS V14.01,2013-01-19 22:35:00,
2013-01-19 17:40:00,45.5,32.4,29.63,SSW,193,10.0,18.0,60,0.00,,SCT110,0.01,VWS V14.01,2013-01-19 22:40:00,
2013-01-19 17:50:00,45.1,32.5,29.62,SSW,210,10.0,14.0,61,0.00,,SCT110,0.01,VWS V14.01,2013-01-19 22:50:00,
2013-01-19 18:00:00,45.1,32.5,29.63,SSW,199,18.0,18.0,61,0.00,,SCT110,0.01,VWS V14.01,2013-01-19 23:00:00,
2013-01-19 18:05:00,44.9,32.3,29.63,SSW,208,14.0,18.0,61,0.00,,SCT110,0.01,VWS V14.01,2013-01-19 23:05:00,
2013-01-19 18:16:00,44.8,32.6,29.63,SSW,210,7.0,17.0,62,0.00,,SCT110,0.01,VWS V14.01,2013-01-19 23:16:00,
2013-01-19 18:21:00,44.9,32.7,29.63,SW,229,16.0,20.0,62,0.00,,SCT110,0.01,VWS V14.01,2013-01-19 23:21:00,
2013-01-19 18:30:00,44.6,32.8,29.63,SSW,209,14.0,18.0,63,0.00,,SCT110,0.01,VWS V14.01,2013-01-19 23:30:00,
2013-01-19 18:35:00,44.5,32.7,29.63,SSW,206,12.0,17.0,63,0.00,,SCT110,0.01,VWS V14.01,2013-01-19 23:35:00,
2013-01-19 18:40:00,44.5,33.1,29.63,SSW,192,7.0,17.0,64,0.00,,CLR,0.01,VWS V14.01,2013-01-19 23:40:00,
2013-01-19 18:45:00,44.2,32.8,29.64,SSW,200,11.0,16.0,64,0.00,,CLR,0.01,VWS V14.01,2013-01-19 23:45:00,
2013-01-19 18:55:00,44.1,32.7,29.64,SW,217,10.0,17.0,64,0.00,,CLR,0.01,VWS V14.01,2013-01-19 23:55:00,
2013-01-19 19:05:00,43.6,33.0,29.63,SSW,202,14.0,19.0,66,0.00,,CLR,0.01,VWS V14.01,2013-01-20 00:05:00,
2013-01-19 19:15:00,43.9,32.9,29.64,SW,229,15.0,19.0,65,0.00,,CLR,0.01,VWS V14.01,2013-01-20 00:15:00,
2013-01-19 19:20:00,43.9,33.3,29.64,SW,220,11.0,19.0,66,0.00,,CLR,0.01,VWS V14.01,2013-01-20 00:20:00,
2013-01-19 19:25:00,43.9,33.3,29.64,SW,215,14.0,19.0,66,0.00,,CLR,0.01,VWS V14.01,2013-01-20 00:25:00,
2013-01-19 19:30:00,43.8,33.2,29.64,SSW,203,16.0,18.0,66,0.00,,CLR,0.01,VWS V14.01,2013-01-20 00:30:00,
2013-01-19 19:35:00,43.8,33.2,29.64,SW,216,13.0,25.0,66,0.00,,CLR,0.01,VWS V14.01,2013-01-20 00:35:00,
2013-01-19 19:41:00,43.8,33.6,29.64,SW,226,9.0,18.0,67,0.00,,CLR,0.01,VWS V14.01,2013-01-20 00:41:00,
2013-01-19 19:50:00,43.3,33.5,29.64,SW,222,17.0,18.0,68,0.00,,CLR,0.01,VWS V14.01,2013-01-20 00:50:00,
2013-01-19 19:55:00,43.3,33.5,29.64,SSW,210,14.0,20.0,68,0.00,,CLR,0.01,VWS V14.01,2013-01-20 00:55:00,
2013-01-19 20:05:00,43.3,33.5,29.64,SW,224,10.0,17.0,68,0.00,,CLR,0.01,VWS V14.01,2013-01-20 01:05:00,
2013-01-19 20:15:00,43.8,33.6,29.64,WSW,241,12.0,24.0,67,0.00,,CLR,0.01,VWS V14.01,2013-01-20 01:15:00,
2013-01-19 20:25:00,43.6,33.8,29.64,SW,215,19.0,22.0,68,0.00,,CLR,0.01,VWS V14.01,2013-01-20 01:25:00,
2013-01-19 20:35:00,43.5,33.7,29.64,SW,222,21.0,21.0,68,0.00,,CLR,0.01,VWS V14.01,2013-01-20 01:35:00,
2013-01-19 20:41:00,43.5,34.0,29.64,SW,226,22.0,22.0,69,0.00,,CLR,0.01,VWS V14.01,2013-01-20 01:41:00,
2013-01-19 20:51:00,43.1,33.6,29.63,SW,227,16.0,20.0,69,0.00,,CLR,0.01,VWS V14.01,2013-01-20 01:51:00,
2013-01-19 20:56:00,42.9,33.8,29.63,SW,236,17.0,27.0,70,0.00,,CLR,0.01,VWS V14.01,2013-01-20 01:56:00,
2013-01-19 21:05:00,42.6,33.5,29.63,SW,216,18.0,22.0,70,0.00,,CLR,0.01,VWS V14.01,2013-01-20 02:05:00,
2013-01-19 21:10:00,42.5,33.8,29.63,SW,230,13.0,22.0,71,0.00,,CLR,0.01,VWS V14.01,2013-01-20 02:10:00,
2013-01-19 21:15:00,42.2,33.8,29.63,SW,226,13.0,21.0,72,0.00,,CLR,0.01,VWS V14.01,2013-01-20 02:15:00,
2013-01-19 21:20:00,42.2,33.8,29.63,SW,234,12.0,24.0,72,0.00,,CLR,0.01,VWS V14.01,2013-01-20 02:20:00,
2013-01-19 21:25:00,42.1,33.7,29.63,SW,224,14.0,19.0,72,0.00,,CLR,0.01,VWS V14.01,2013-01-20 02:25:00,
2013-01-19 21:30:00,42.1,33.7,29.63,SW,224,13.0,20.0,72,0.00,,CLR,0.01,VWS V14.01,2013-01-20 02:30:00,
2013-01-19 21:40:00,41.9,33.5,29.63,SW,236,11.0,22.0,72,0.00,,FEW090,0.01,VWS V14.01,2013-01-20 02:40:00,
2013-01-19 21:50:00,41.6,33.6,29.63,WSW,237,13.0,20.0,73,0.00,,FEW090,0.01,VWS V14.01,2013-01-20 02:50:00,
2013-01-19 21:55:00,41.5,33.5,29.63,SW,224,17.0,19.0,73,0.00,,FEW090,0.01,VWS V14.01,2013-01-20 02:55:00,
2013-01-19 22:00:00,41.5,33.5,29.62,SW,230,16.0,20.0,73,0.00,,FEW090,0.01,VWS V14.01,2013-01-20 03:00:00,
2013-01-19 22:10:00,41.8,33.5,29.62,SW,230,17.0,25.0,72,0.00,,FEW090,0.01,VWS V14.01,2013-01-20 03:10:00,
2013-01-19 22:15:00,41.8,33.5,29.62,SW,230,15.0,21.0,72,0.00,,FEW090,0.01,VWS V14.01,2013-01-20 03:15:00,
2013-01-19 22:20:00,41.9,33.5,29.62,SW,233,16.0,26.0,72,0.00,,FEW090,0.01,VWS V14.01,2013-01-20 03:20:00,
2013-01-19 22:25:00,42.1,33.4,29.62,West,260,10.0,24.0,71,0.00,,FEW090,0.01,VWS V14.01,2013-01-20 03:25:00,
2013-01-19 22:36:00,41.9,32.8,29.62,SW,220,14.0,21.0,70,0.00,,FEW090,0.01,VWS V14.01,2013-01-20 03:36:00,
2013-01-19 22:45:00,41.8,32.8,29.62,WSW,237,10.0,26.0,70,0.00,,OVC090,0.01,VWS V14.01,2013-01-20 03:45:00,
2013-01-19 22:50:00,41.6,32.9,29.62,SW,226,13.0,25.0,71,0.00,,OVC090,0.01,VWS V14.01,2013-01-20 03:50:00,
2013-01-19 23:00:00,41.3,32.6,29.63,West,265,8.0,20.0,71,0.00,,OVC090,0.01,VWS V14.01,2013-01-20 04:00:00,
2013-01-19 23:10:00,41.2,32.2,29.63,SW,224,16.0,21.0,70,0.00,,OVC090,0.01,VWS V14.01,2013-01-20 04:10:00,
2013-01-19 23:15:00,41.2,32.2,29.64,West,264,10.0,25.0,70,0.00,,OVC090,0.01,VWS V14.01,2013-01-20 04:15:00,
2013-01-19 23:20:00,41.2,31.8,29.64,SSW,208,18.0,25.0,69,0.00,,OVC090,0.01,VWS V14.01,2013-01-20 04:20:00,
2013-01-19 23:25:00,41.3,31.9,29.64,WSW,257,19.0,28.0,69,0.00,,OVC090,0.01,VWS V14.01,2013-01-20 04:25:00,
2013-01-19 23:35:00,40.9,31.5,29.64,SW,227,14.0,27.0,69,0.00,,OVC090,0.01,VWS V14.01,2013-01-20 04:35:00,
2013-01-19 23:40:00,40.8,31.4,29.64,WSW,257,14.0,25.0,69,0.00,,FEW039,0.01,VWS V14.01,2013-01-20 04:40:00,
2013-01-19 23:55:00,40.6,30.5,29.65,West,274,26.0,31.0,67,0.00,,FEW039,0.01,VWS V14.01,2013-01-20 04:55:00,